Lambertville, OH

11:53 PM EDT on March 27, 2017 (GMT -0400)
Lambertville

Weather History for KDUH - November, 2012

Change the Weather History Date:

Wednesday, November 14, 2012

  Actual Average (KTOL) Record (KTOL)
Temperature  
Mean Temperature 31 °F -  
Max Temperature 40 °F 47 °F 72 °F (1909)
Min Temperature 22 °F 29 °F 11 °F (1986)
Degree Days  
Heating Degree Days 34    
Moisture  
Dew Point 24 °F    
Average Humidity 75    
Maximum Humidity 89    
Minimum Humidity 55    
Precipitation  
Precipitation 0.00 in - - ()
Sea Level Pressure  
Sea Level Pressure 30.52 in    
Wind  
Wind Speed 1 mph (ESE)    
Max Wind Speed 8 mph    
Max Gust Speed -    
Visibility 10 miles    
Events      
Averages and records for this station are not official NWS values.
T = Trace of Precipitation, MM = Missing Value Source: NWS Daily Summary

Daily Weather History Graph

Daily Weather History Graph

Search for Another Location

Airport or City:

Trip Planner

Search our weather history database for the weather conditions in past years. The results will help you decide how hot, cold, wet, or windy it might be!

Date:

Astronomy

Nov. 14, 2012 Rise Set
Actual Time 7:23 AM EST 5:14 PM EST
Civil Twilight 6:53 AM EST 5:44 PM EST
Nautical Twilight 6:19 AM EST 6:18 PM EST
Astronomical Twilight 5:46 AM EST 6:50 PM EST
Moon 8:12 AM EST (11/14) 6:01 PM EST (11/14)
Length of Visible Light 10h 51m
Length of Day
9h 51m
New Moon, 1% of the Moon is Illuminated
Nov 14
New Moon
Nov 20
First Quarter
Nov 28
Full
Dec 6
Last Quarter
Dec 13
New

Hourly Weather History & Observations

Time (EST) Temp. Windchill Dew Point Humidity Pressure Visibility Wind Dir Wind Speed Gust Speed Precip Events Conditions
12:15 AM 26.6 °F - 22.8 °F 86% 30.54 in 10.0 mi Calm Calm - N/A   Clear
12:35 AM 26.1 °F - 22.1 °F 85% 30.54 in 10.0 mi Calm Calm - N/A   Clear
12:55 AM 25.7 °F - 22.6 °F 88% 30.54 in 10.0 mi Calm Calm - N/A   Clear
1:15 AM 24.6 °F - 21.4 °F 87% 30.53 in 10.0 mi Calm Calm - N/A   Clear
1:35 AM 24.6 °F - 21.4 °F 87% 30.53 in 10.0 mi Calm Calm - N/A   Clear
1:55 AM 24.8 °F - 21.7 °F 88% 30.53 in 10.0 mi Calm Calm - N/A   Clear
2:15 AM 24.4 °F - 21.4 °F 88% 30.54 in 5.0 mi Calm Calm - N/A   Clear
2:35 AM 25.3 °F - 22.1 °F 87% 30.54 in 10.0 mi Calm Calm - N/A   Clear
2:55 AM 24.4 °F - 21.2 °F 87% 30.55 in 10.0 mi Calm Calm - N/A   Clear
3:15 AM 24.3 °F - 21.2 °F 88% 30.55 in 7.0 mi Calm Calm - N/A   Clear
3:35 AM 23.9 °F - 20.8 °F 88% 30.55 in 10.0 mi Calm Calm - N/A   Clear
3:55 AM 24.1 °F - 21.2 °F 89% 30.55 in 10.0 mi Calm Calm - N/A   Clear
4:15 AM 23.9 °F - 20.8 °F 88% 30.55 in 10.0 mi Calm Calm - N/A   Clear
4:35 AM 23.0 °F - 19.8 °F 87% 30.55 in 7.0 mi Calm Calm - N/A   Clear
4:55 AM 23.2 °F - 20.5 °F 89% 30.56 in 7.0 mi Calm Calm - N/A   Clear
5:15 AM 23.7 °F - 21.0 °F 89% 30.56 in 10.0 mi Calm Calm - N/A   Clear
5:35 AM 23.2 °F - 19.9 °F 87% 30.56 in 7.0 mi Calm Calm - N/A   Clear
5:55 AM 23.9 °F - 21.0 °F 89% 30.56 in 10.0 mi Calm Calm - N/A   Clear
6:15 AM 23.0 °F - 19.6 °F 87% 30.56 in 10.0 mi Calm Calm - N/A   Clear
6:35 AM 23.2 °F - 20.1 °F 88% 30.56 in 10.0 mi Calm Calm - N/A   Clear
6:55 AM 23.0 °F - 19.9 °F 88% 30.57 in 10.0 mi Calm Calm - N/A   Clear
7:15 AM 22.6 °F - 19.4 °F 87% 30.58 in 10.0 mi Calm Calm - N/A   Clear
7:35 AM 22.8 °F - 19.8 °F 88% 30.58 in 10.0 mi Calm Calm - N/A   Scattered Clouds
7:55 AM 23.5 °F - 20.3 °F 87% 30.58 in 7.0 mi Calm Calm - N/A   Clear
8:15 AM 24.8 °F - 21.7 °F 88% 30.58 in 7.0 mi Calm Calm - N/A   Clear
8:35 AM 28.6 °F - 25.5 °F 88% 30.58 in 7.0 mi Calm Calm - N/A   Clear
8:55 AM 30.7 °F - 25.2 °F 80% 30.58 in 10.0 mi Calm Calm - N/A   Clear
9:15 AM 32.9 °F - 23.9 °F 69% 30.58 in 10.0 mi Calm Calm - N/A   Clear
9:35 AM 34.7 °F - 23.2 °F 63% 30.58 in 10.0 mi Calm Calm - N/A   Clear
9:55 AM 35.8 °F - 23.4 °F 61% 30.58 in 10.0 mi Calm Calm - N/A   Clear
10:15 AM 36.7 °F - 24.3 °F 61% 30.58 in 10.0 mi Calm Calm - N/A   Clear
10:35 AM 37.6 °F 34.0 °F 23.9 °F 58% 30.58 in 10.0 mi East 4.6 mph - N/A   Clear
10:55 AM 38.1 °F 35.7 °F 23.9 °F 57% 30.58 in 10.0 mi SE 3.5 mph - N/A   Clear
11:15 AM 38.8 °F 34.6 °F 24.4 °F 56% 30.58 in 10.0 mi SSE 5.8 mph - N/A   Clear
11:35 AM 39.0 °F 35.7 °F 24.1 °F 55% 30.56 in 10.0 mi East 4.6 mph - N/A   Clear
11:55 AM 39.4 °F 34.5 °F 24.6 °F 56% 30.55 in 10.0 mi SE 6.9 mph - N/A   Clear
12:15 PM 39.4 °F 36.1 °F 24.3 °F 55% 30.54 in 10.0 mi South 4.6 mph - N/A   Scattered Clouds
12:35 PM 40.3 °F 38.2 °F 25.3 °F 55% 30.54 in 10.0 mi SSE 3.5 mph - N/A   Mostly Cloudy
12:55 PM 39.6 °F 36.3 °F 25.3 °F 57% 30.54 in 10.0 mi SE 4.6 mph - N/A   Scattered Clouds
1:15 PM 39.6 °F 34.7 °F 25.0 °F 56% 30.53 in 10.0 mi SE 6.9 mph - N/A   Scattered Clouds
1:35 PM 40.1 °F 34.7 °F 25.5 °F 56% 30.52 in 10.0 mi ESE 8.1 mph - N/A   Scattered Clouds
1:55 PM 40.3 °F 38.2 °F 25.3 °F 55% 30.51 in 10.0 mi ESE 3.5 mph - N/A   Scattered Clouds
2:15 PM 39.9 °F 35.8 °F 25.2 °F 56% 30.51 in 10.0 mi East 5.8 mph - N/A   Clear
2:35 PM 40.5 °F 37.3 °F 25.5 °F 55% 30.50 in 10.0 mi ESE 4.6 mph - N/A   Clear
2:55 PM 40.3 °F 38.2 °F 25.3 °F 55% 30.50 in 10.0 mi East 3.5 mph - N/A   Clear
3:15 PM 40.1 °F 36.9 °F 25.3 °F 56% 30.49 in 10.0 mi ESE 4.6 mph - N/A   Clear
3:35 PM 39.4 °F 35.2 °F 25.3 °F 57% 30.49 in 10.0 mi East 5.8 mph - N/A   Clear
3:55 PM 38.8 °F 35.4 °F 25.9 °F 60% 30.49 in 10.0 mi East 4.6 mph - N/A   Clear
4:15 PM 38.5 °F 32.7 °F 26.4 °F 62% 30.48 in 10.0 mi ENE 8.1 mph - N/A   Clear
4:35 PM 37.9 °F 33.5 °F 26.6 °F 64% 30.48 in 10.0 mi East 5.8 mph - N/A   Clear
4:55 PM 37.4 °F 33.8 °F 26.6 °F 65% 30.48 in 10.0 mi East 4.6 mph - N/A   Clear
5:15 PM 36.1 °F - 26.6 °F 68% 30.47 in 10.0 mi Calm Calm - N/A   Clear
5:35 PM 35.1 °F - 26.4 °F 71% 30.48 in 10.0 mi Calm Calm - N/A   Clear
5:55 PM 32.0 °F - 26.1 °F 79% 30.48 in 7.0 mi Calm Calm - N/A   Scattered Clouds
6:15 PM 33.3 °F - 27.5 °F 79% 30.48 in 10.0 mi Calm Calm - N/A   Overcast
6:35 PM 33.4 °F - 28.4 °F 82% 30.49 in 10.0 mi Calm Calm - N/A   Overcast
6:55 PM 34.2 °F - 28.8 °F 81% 30.48 in 10.0 mi Calm Calm - N/A   Overcast
7:15 PM 34.7 °F - 28.8 °F 79% 30.48 in 10.0 mi Calm Calm - N/A   Overcast
7:35 PM 34.7 °F - 28.8 °F 79% 30.46 in 10.0 mi Calm Calm - N/A   Overcast
7:55 PM 34.7 °F - 29.3 °F 81% 30.46 in 10.0 mi Calm Calm - N/A   Overcast
8:15 PM 34.7 °F - 29.3 °F 81% 30.45 in 10.0 mi Calm Calm - N/A   Overcast
8:35 PM 34.7 °F - 28.6 °F 78% 30.45 in 10.0 mi Calm Calm - N/A   Overcast
8:55 PM 35.1 °F - 28.4 °F 77% 30.45 in 10.0 mi Calm Calm - N/A   Overcast
9:35 PM 34.5 °F - 27.9 °F 77% 30.45 in 10.0 mi Calm Calm - N/A   Overcast
9:55 PM 33.6 °F - 28.4 °F 81% 30.44 in 10.0 mi Calm Calm - N/A   Overcast
10:15 PM 35.1 °F - 28.0 °F 76% 30.44 in 10.0 mi Calm Calm - N/A   Overcast
10:35 PM 34.7 °F - 29.3 °F 81% 30.43 in 10.0 mi Calm Calm - N/A   Overcast
10:55 PM 34.9 °F - 28.2 °F 77% 30.43 in 10.0 mi Calm Calm - N/A   Overcast
11:15 PM 34.7 °F - 28.2 °F 77% 30.43 in 10.0 mi Calm Calm - N/A   Overcast
11:35 PM 34.3 °F - 29.1 °F 81% 30.43 in 10.0 mi Calm Calm - N/A   Overcast
11:55 PM 34.5 °F - 28.8 °F 79% 30.43 in 10.0 mi Calm Calm - N/A   Overcast